| time (UTC) | temp C | wind direction | speed KPH | gust KPH | rain 1hr cm | rain 24hr cm | rain mn cm | humidity % | barometer mb |
| 20260506151014 | -17 | 0.0 | 0.0 | 0.00 | 0.00 | 0.00 | 1007.7 | ||
| 20260506150512 | -17 | 0.0 | 0.0 | 0.00 | 0.00 | 0.00 | 1007.7 | ||
| 20260506150011 | -17 | 0.0 | 0.0 | 0.00 | 0.00 | 0.00 | 1007.7 | ||
| 20260506145511 | -17 | 0.0 | 0.0 | 0.00 | 0.00 | 0.00 | 1007.8 | ||
| 20260506145008 | -17 | 0.0 | 0.0 | 0.00 | 0.00 | 0.00 | 1007.6 | ||
| 20260506144506 | -17 | 0.0 | 0.0 | 0.00 | 0.00 | 0.00 | 1007.6 | ||
| 20260506144005 | -17 | 0.0 | 0.0 | 0.00 | 0.00 | 0.00 | 1007.6 | ||
| 20260506143504 | -17 | 0.0 | 0.0 | 0.00 | 0.00 | 0.00 | 1007.7 | ||
| 20260506143005 | -17 | 0.0 | 0.0 | 0.00 | 0.00 | 0.00 | 1007.7 | ||
| 20260506142501 | -17 | 0.0 | 0.0 | 0.00 | 0.00 | 0.00 | 1007.7 | ||
| 20260506142102 | -17 | 0.0 | 0.0 | 0.00 | 0.00 | 0.00 | 1007.5 | ||
| 20260506141558 | -17 | 0.0 | 0.0 | 0.00 | 0.00 | 0.00 | 1007.5 | ||
| 20260506141057 | -17 | 0.0 | 0.0 | 0.00 | 0.00 | 0.00 | 1007.5 | ||
| 20260506140557 | -17 | 0.0 | 0.0 | 0.00 | 0.00 | 0.00 | 1007.6 | ||
| 20260506140054 | -17 | 0.0 | 0.0 | 0.00 | 0.00 | 0.00 | 1007.4 | ||
| 20260506135552 | -17 | 0.0 | 0.0 | 0.00 | 0.00 | 0.00 | 1007.2 | ||
| 20260506135050 | -17 | 0.0 | 0.0 | 0.00 | 0.00 | 0.00 | 1007.3 | ||
| 20260506134550 | -17 | 0.0 | 0.0 | 0.00 | 0.00 | 0.00 | 1007.3 | ||
| 20260506134049 | -17 | 0.0 | 0.0 | 0.00 | 0.00 | 0.00 | 1007.3 | ||
| 20260506133548 | -17 | 0.0 | 0.0 | 0.00 | 0.00 | 0.00 | 1007.4 | ||
| 20260506133045 | -17 | 0.0 | 0.0 | 0.00 | 0.00 | 0.00 | 1007.1 | ||
| 20260506132543 | -17 | 0.0 | 0.0 | 0.00 | 0.00 | 0.00 | 1007.1 | ||
| 20260506132047 | -17 | 0.0 | 0.0 | 0.00 | 0.00 | 0.00 | 1007.1 | ||
| 20260506131541 | -17 | 0.0 | 0.0 | 0.00 | 0.00 | 0.00 | 1007.1 | ||
| 20260506131041 | -17 | 0.0 | 0.0 | 0.00 | 0.00 | 0.00 | 1007.0 | ||
| 20260506130538 | -17 | 0.0 | 0.0 | 0.00 | 0.00 | 0.00 | 1006.9 | ||
| 20260506130037 | -17 | 0.0 | 0.0 | 0.00 | 0.00 | 0.00 | 1006.8 | ||
| 20260506125534 | -17 | 0.0 | 0.0 | 0.00 | 0.00 | 0.00 | 1006.9 | ||
| 20260506125033 | -17 | 0.0 | 0.0 | 0.00 | 0.00 | 0.00 | 1006.9 | ||
| 20260506051002 | 24 | 82 | 0.0 | 4.8 | 0.00 | 0.00 | 0.00 | 41 | 1006.8 |
| 20260506050502 | 24 | 82 | 0.0 | 4.8 | 0.00 | 0.00 | 0.00 | 41 | 1006.6 |
| 20260506045002 | 24 | 159 | 0.0 | 1.6 | 0.00 | 0.00 | 0.00 | 39 | 1006.6 |
| 20260506044505 | 24 | 159 | 0.0 | 4.8 | 0.00 | 0.00 | 0.00 | 39 | 1006.6 |
| 20260506044001 | 24 | 157 | 0.0 | 4.8 | 0.00 | 0.00 | 0.00 | 38 | 1006.5 |
| 20260506043500 | 25 | 153 | 0.0 | 3.2 | 0.00 | 0.00 | 0.00 | 38 | 1006.4 |
| 20260506043106 | 25 | 158 | 0.0 | 0.0 | 0.00 | 0.00 | 0.00 | 38 | 1006.4 |
| 20260506042600 | 25 | 158 | 0.0 | 0.0 | 0.00 | 0.00 | 0.00 | 38 | 1006.3 |
| 20260506042100 | 25 | 158 | 0.0 | 0.0 | 0.00 | 0.00 | 0.00 | 37 | 1006.3 |
| 20260506041604 | 25 | 81 | 0.0 | 1.6 | 0.00 | 0.00 | 0.00 | 36 | 1006.0 |
| 20260506041100 | 25 | 81 | 0.0 | 1.6 | 0.00 | 0.00 | 0.00 | 35 | 1005.9 |
| 20260506040559 | 25 | 84 | 0.0 | 6.4 | 0.00 | 0.00 | 0.00 | 36 | 1005.8 |
| 20260506040107 | 26 | 83 | 0.0 | 6.4 | 0.00 | 0.00 | 0.00 | 36 | 1005.8 |
| 20260506035600 | 26 | 60 | 0.0 | 9.7 | 0.00 | 0.00 | 0.00 | 35 | 1005.6 |
| 20260506035059 | 26 | 326 | 0.0 | 9.7 | 0.00 | 0.00 | 0.00 | 34 | 1005.6 |
| 20260506034606 | 26 | 78 | 1.6 | 6.4 | 0.00 | 0.00 | 0.00 | 34 | 1005.5 |
| 20260506034059 | 26 | 334 | 0.0 | 9.7 | 0.00 | 0.00 | 0.00 | 34 | 1005.2 |
| 20260506033559 | 26 | 345 | 1.6 | 9.7 | 0.00 | 0.00 | 0.00 | 34 | 1005.1 |
| 20260506033059 | 26 | 289 | 0.0 | 6.4 | 0.00 | 0.00 | 0.00 | 34 | 1004.9 |
| 20260506032559 | 26 | 263 | 0.0 | 6.4 | 0.00 | 0.00 | 0.00 | 34 | 1004.9 |
| 20260506032059 | 26 | 267 | 0.0 | 1.6 | 0.00 | 0.00 | 0.00 | 34 | 1004.8 |
| 20260506031559 | 26 | 266 | 0.0 | 3.2 | 0.00 | 0.00 | 0.00 | 34 | 1004.8 |
| 20260506031057 | 26 | 301 | 0.0 | 3.2 | 0.00 | 0.00 | 0.00 | 34 | 1004.7 |
| 20260506030559 | 26 | 316 | 0.0 | 3.2 | 0.00 | 0.00 | 0.00 | 34 | 1004.7 |
| 20260506030101 | 26 | 302 | 0.0 | 3.2 | 0.00 | 0.00 | 0.00 | 35 | 1004.5 |
| 20260506025557 | 26 | 309 | 0.0 | 3.2 | 0.00 | 0.00 | 0.00 | 36 | 1004.4 |
| 20260506025057 | 26 | 317 | 0.0 | 0.0 | 0.00 | 0.00 | 0.00 | 36 | 1004.4 |
| 20260506024600 | 26 | 316 | 0.0 | 0.0 | 0.00 | 0.00 | 0.00 | 36 | 1004.3 |
| 20260506024057 | 26 | 288 | 0.0 | 0.0 | 0.00 | 0.00 | 0.00 | 36 | 1004.3 |
| 20260506023558 | 26 | 279 | 0.0 | 0.0 | 0.00 | 0.00 | 0.00 | 36 | 1004.2 |
| 20260506023056 | 26 | 279 | 0.0 | 1.6 | 0.00 | 0.00 | 0.00 | 35 | 1004.1 |
| 20260506022555 | 26 | 279 | 0.0 | 1.6 | 0.00 | 0.00 | 0.00 | 35 | 1004.0 |
| 20260506022056 | 26 | 293 | 0.0 | 0.0 | 0.00 | 0.00 | 0.00 | 35 | 1003.9 |
| 20260506021604 | 26 | 284 | 0.0 | 0.0 | 0.00 | 0.00 | 0.00 | 35 | 1003.8 |
| 20260506021056 | 26 | 284 | 0.0 | 1.6 | 0.00 | 0.00 | 0.00 | 35 | 1003.7 |
| 20260506020655 | 27 | 284 | 0.0 | 1.6 | 0.00 | 0.00 | 0.00 | 34 | 1003.5 |
| 20260506020055 | 27 | 286 | 0.0 | 1.6 | 0.00 | 0.00 | 0.00 | 34 | 1003.4 |
| 20260506015600 | 27 | 286 | 0.0 | 1.6 | 0.00 | 0.00 | 0.00 | 34 | 1003.3 |
| 20260506015055 | 27 | 287 | 0.0 | 1.6 | 0.00 | 0.00 | 0.00 | 34 | 1003.3 |
| 20260506014555 | 27 | 308 | 0.0 | 1.6 | 0.00 | 0.00 | 0.00 | 33 | 1003.2 |
| 20260506014055 | 28 | 21 | 0.0 | 1.6 | 0.00 | 0.00 | 0.00 | 34 | 1003.1 |
| 20260506013554 | 28 | 63 | 0.0 | 1.6 | 0.00 | 0.00 | 0.00 | 33 | 1003.0 |
| 20260506013103 | 28 | 63 | 0.0 | 0.0 | 0.00 | 0.00 | 0.00 | 33 | 1002.9 |
| 20260506012554 | 28 | 63 | 0.0 | 0.0 | 0.00 | 0.00 | 0.00 | 33 | 1002.7 |
| 20260506012055 | 28 | 63 | 0.0 | 0.0 | 0.00 | 0.00 | 0.00 | 32 | 1002.7 |
| 20260506011604 | 29 | 63 | 0.0 | 4.8 | 0.00 | 0.00 | 0.00 | 31 | 1002.7 |
| 20260506011056 | 29 | 62 | 0.0 | 4.8 | 0.00 | 0.00 | 0.00 | 31 | 1002.7 |
| 20260506010554 | 29 | 91 | 0.0 | 1.6 | 0.00 | 0.00 | 0.00 | 31 | 1002.6 |
| 20260506010054 | 30 | 90 | 0.0 | 6.4 | 0.00 | 0.00 | 0.00 | 31 | 1002.6 |
| 20260506005553 | 30 | 89 | 0.0 | 6.4 | 0.00 | 0.00 | 0.00 | 30 | 1002.5 |
| 20260506005053 | 30 | 70 | 0.0 | 3.2 | 0.00 | 0.00 | 0.00 | 30 | 1002.4 |
| 20260506004553 | 30 | 69 | 0.0 | 3.2 | 0.00 | 0.00 | 0.00 | 31 | 1002.4 |
| 20260506004053 | 30 | 137 | 0.0 | 3.2 | 0.00 | 0.00 | 0.00 | 30 | 1002.5 |
| 20260506003553 | 30 | 100 | 0.0 | 4.8 | 0.00 | 0.00 | 0.00 | 31 | 1002.4 |
| 20260506003053 | 30 | 103 | 0.0 | 6.4 | 0.00 | 0.00 | 0.00 | 30 | 1002.4 |
| 20260506002553 | 30 | 82 | 0.0 | 6.4 | 0.00 | 0.00 | 0.00 | 29 | 1002.4 |
| 20260506002052 | 31 | 70 | 1.6 | 8.0 | 0.00 | 0.00 | 0.00 | 29 | 1002.3 |
| 20260506001554 | 31 | 109 | 0.0 | 8.0 | 0.00 | 0.00 | 0.00 | 28 | 1002.2 |
| 20260506001055 | 31 | 51 | 0.0 | 6.4 | 0.00 | 0.00 | 0.00 | 28 | 1002.1 |
| 20260506000552 | 31 | 4 | 1.6 | 11.3 | 0.00 | 0.00 | 0.00 | 27 | 1002.2 |
| 20260506000052 | 31 | 340 | 1.6 | 14.5 | 0.00 | 0.00 | 0.00 | 28 | 1002.2 |
| 20260505235552 | 31 | 73 | 6.4 | 14.5 | 0.00 | 0.00 | 0.00 | 28 | 1002.1 |
| 20260505235051 | 31 | 136 | 3.2 | 16.1 | 0.00 | 0.00 | 0.00 | 28 | 1002.1 |
| 20260505234600 | 31 | 82 | 3.2 | 16.1 | 0.00 | 0.00 | 0.00 | 27 | 1002.2 |
| 20260505234050 | 32 | 77 | 1.6 | 9.7 | 0.00 | 0.00 | 0.00 | 27 | 1002.2 |
| 20260505233549 | 32 | 105 | 1.6 | 12.9 | 0.00 | 0.00 | 0.00 | 26 | 1002.3 |
| 20260505233050 | 32 | 80 | 1.6 | 20.9 | 0.00 | 0.00 | 0.00 | 26 | 1002.3 |
| 20260505232548 | 32 | 37 | 4.8 | 20.9 | 0.00 | 0.00 | 0.00 | 27 | 1002.4 |
| 20260505232049 | 32 | 307 | 1.6 | 14.5 | 0.00 | 0.00 | 0.00 | 27 | 1002.4 |
| 20260505231603 | 32 | 337 | 6.4 | 14.5 | 0.00 | 0.00 | 0.00 | 27 | 1002.4 |
| 20260505231047 | 32 | 86 | 3.2 | 12.9 | 0.00 | 0.00 | 0.00 | 27 | 1002.4 |
| 20260505230548 | 32 | 102 | 0.0 | 11.3 | 0.00 | 0.00 | 0.00 | 27 | 1002.4 |
| 20260505230052 | 32 | 81 | 1.6 | 19.3 | 0.00 | 0.00 | 0.00 | 27 | 1002.5 |
| 20260505225547 | 32 | 87 | 8.0 | 19.3 | 0.00 | 0.00 | 0.00 | 26 | 1002.5 |
| 20260505225047 | 32 | 82 | 6.4 | 19.3 | 0.00 | 0.00 | 0.00 | 26 | 1002.4 |
| 20260505224549 | 32 | 58 | 4.8 | 16.1 | 0.00 | 0.00 | 0.00 | 26 | 1002.5 |
| 20260505224050 | 32 | 68 | 3.2 | 14.5 | 0.00 | 0.00 | 0.00 | 25 | 1002.5 |
| 20260505223546 | 32 | 333 | 3.2 | 14.5 | 0.00 | 0.00 | 0.00 | 26 | 1002.6 |
| 20260505223047 | 32 | 345 | 6.4 | 17.7 | 0.00 | 0.00 | 0.00 | 27 | 1002.6 |
| 20260505222545 | 32 | 75 | 8.0 | 17.7 | 0.00 | 0.00 | 0.00 | 27 | 1002.7 |
| 20260505222048 | 32 | 128 | 1.6 | 17.7 | 0.00 | 0.00 | 0.00 | 27 | 1002.7 |
| 20260505221546 | 32 | 69 | 4.8 | 17.7 | 0.00 | 0.00 | 0.00 | 26 | 1002.8 |
| 20260505221043 | 32 | 331 | 6.4 | 17.7 | 0.00 | 0.00 | 0.00 | 26 | 1002.8 |
| 20260505220542 | 32 | 347 | 6.4 | 22.5 | 0.00 | 0.00 | 0.00 | 26 | 1002.8 |
| 20260505220042 | 32 | 56 | 9.7 | 22.5 | 0.00 | 0.00 | 0.00 | 27 | 1002.9 |
| 20260505215543 | 32 | 338 | 4.8 | 16.1 | 0.00 | 0.00 | 0.00 | 28 | 1002.9 |
| 20260505215041 | 32 | 91 | 4.8 | 17.7 | 0.00 | 0.00 | 0.00 | 27 | 1003.0 |
| 20260505214602 | 32 | 65 | 0.0 | 12.9 | 0.00 | 0.00 | 0.00 | 28 | 1003.0 |
| 20260505214039 | 32 | 126 | 4.8 | 22.5 | 0.00 | 0.00 | 0.00 | 29 | 1003.1 |
| 20260505213539 | 32 | 136 | 3.2 | 22.5 | 0.00 | 0.00 | 0.00 | 29 | 1003.1 |
| 20260505213039 | 32 | 59 | 3.2 | 20.9 | 0.00 | 0.00 | 0.00 | 29 | 1003.2 |
| 20260505212537 | 32 | 105 | 6.4 | 20.9 | 0.00 | 0.00 | 0.00 | 29 | 1003.3 |
| 20260505212038 | 32 | 95 | 4.8 | 12.9 | 0.00 | 0.00 | 0.00 | 30 | 1003.2 |
| 20260505211536 | 32 | 117 | 1.6 | 22.5 | 0.00 | 0.00 | 0.00 | 30 | 1003.4 |
| 20260505211035 | 32 | 121 | 6.4 | 22.5 | 0.00 | 0.00 | 0.00 | 29 | 1003.4 |
| 20260505210534 | 32 | 130 | 6.4 | 16.1 | 0.00 | 0.00 | 0.00 | 30 | 1003.4 |
| 20260505210036 | 32 | 317 | 1.6 | 17.7 | 0.00 | 0.00 | 0.00 | 31 | 1003.6 |
| 20260505205532 | 32 | 23 | 4.8 | 17.7 | 0.00 | 0.00 | 0.00 | 31 | 1003.7 |
| 20260505205030 | 32 | 51 | 6.4 | 17.7 | 0.00 | 0.00 | 0.00 | 30 | 1003.8 |
| 20260505204533 | 32 | 4 | 3.2 | 19.3 | 0.00 | 0.00 | 0.00 | 30 | 1003.9 |
| 20260505204029 | 32 | 77 | 6.4 | 17.7 | 0.00 | 0.00 | 0.00 | 31 | 1004.1 |
| 20260505203528 | 32 | 47 | 8.0 | 17.7 | 0.00 | 0.00 | 0.00 | 31 | 1004.0 |
| 20260505203027 | 32 | 65 | 4.8 | 16.1 | 0.00 | 0.00 | 0.00 | 30 | 1004.1 |
| 20260505202527 | 32 | 105 | 3.2 | 22.5 | 0.00 | 0.00 | 0.00 | 30 | 1004.1 |
| 20260505202025 | 32 | 53 | 8.0 | 22.5 | 0.00 | 0.00 | 0.00 | 31 | 1004.4 |
| 20260505201525 | 31 | 56 | 4.8 | 17.7 | 0.00 | 0.00 | 0.00 | 31 | 1004.3 |
| 20260505201026 | 32 | 211 | 3.2 | 16.1 | 0.00 | 0.00 | 0.00 | 30 | 1004.4 |
| 20260505200524 | 31 | 109 | 6.4 | 16.1 | 0.00 | 0.00 | 0.00 | 32 | 1004.5 |
| 20260505200023 | 31 | 72 | 3.2 | 17.7 | 0.00 | 0.00 | 0.00 | 31 | 1004.6 |
| 20260505195521 | 31 | 51 | 4.8 | 17.7 | 0.00 | 0.00 | 0.00 | 32 | 1004.7 |
| 20260505195020 | 31 | 34 | 3.2 | 17.7 | 0.00 | 0.00 | 0.00 | 34 | 1004.7 |
| 20260505194519 | 31 | 46 | 4.8 | 19.3 | 0.00 | 0.00 | 0.00 | 34 | 1004.8 |
| 20260505194019 | 31 | 346 | 8.0 | 19.3 | 0.00 | 0.00 | 0.00 | 33 | 1004.9 |
| 20260505193518 | 30 | 72 | 3.2 | 20.9 | 0.00 | 0.00 | 0.00 | 35 | 1005.1 |
| 20260505193015 | 30 | 124 | 8.0 | 20.9 | 0.00 | 0.00 | 0.00 | 36 | 1005.4 |
| 20260505192519 | 30 | 85 | 6.4 | 19.3 | 0.00 | 0.00 | 0.00 | 35 | 1005.3 |
| 20260505192012 | 30 | 143 | 1.6 | 20.9 | 0.00 | 0.00 | 0.00 | 35 | 1005.5 |
| 20260505191515 | 30 | 103 | 6.4 | 16.1 | 0.00 | 0.00 | 0.00 | 36 | 1005.7 |
| 20260505191010 | 31 | 129 | 1.6 | 11.3 | 0.00 | 0.00 | 0.00 | 36 | 1005.7 |
| 20260505190509 | 30 | 126 | 0.0 | 16.1 | 0.00 | 0.00 | 0.00 | 37 | 1005.8 |
| 20260505190010 | 30 | 70 | 4.8 | 16.1 | 0.00 | 0.00 | 0.00 | 36 | 1006.0 |
| 20260505185510 | 30 | 155 | 4.8 | 16.1 | 0.00 | 0.00 | 0.00 | 36 | 1006.0 |
| 20260505185010 | 30 | 67 | 4.8 | 19.3 | 0.00 | 0.00 | 0.00 | 37 | 1006.2 |
| 20260505184509 | 29 | 150 | 4.8 | 17.7 | 0.00 | 0.00 | 0.00 | 37 | 1006.4 |
| 20260505184004 | 30 | 82 | 8.0 | 19.3 | 0.00 | 0.00 | 0.00 | 36 | 1006.5 |
| 20260505183503 | 29 | 91 | 6.4 | 19.3 | 0.00 | 0.00 | 0.00 | 38 | 1006.6 |
| 20260505183002 | 30 | 13 | 8.0 | 17.7 | 0.00 | 0.00 | 0.00 | 37 | 1006.7 |
| 20260505182502 | 30 | 64 | 1.6 | 16.1 | 0.00 | 0.00 | 0.00 | 37 | 1006.9 |
| 20260505182102 | 30 | 62 | 1.6 | 22.5 | 0.00 | 0.00 | 0.00 | 37 | 1006.8 |
| 20260505181559 | 29 | 44 | 4.8 | 22.5 | 0.00 | 0.00 | 0.00 | 37 | 1007.1 |
| 20260505181058 | 29 | 95 | 3.2 | 19.3 | 0.00 | 0.00 | 0.00 | 37 | 1007.1 |
| 20260505180556 | 29 | 117 | 0.0 | 19.3 | 0.00 | 0.00 | 0.00 | 38 | 1007.2 |
| 20260505180058 | 28 | 44 | 9.7 | 22.5 | 0.00 | 0.00 | 0.00 | 38 | 1007.3 |
| 20260505175556 | 28 | 99 | 11.3 | 22.5 | 0.00 | 0.00 | 0.00 | 38 | 1007.3 |
| 20260505175056 | 28 | 69 | 9.7 | 20.9 | 0.00 | 0.00 | 0.00 | 38 | 1007.6 |
| 20260505174601 | 28 | 115 | 6.4 | 16.1 | 0.00 | 0.00 | 0.00 | 38 | 1007.6 |
| 20260505174056 | 28 | 72 | 4.8 | 20.9 | 0.00 | 0.00 | 0.00 | 38 | 1007.8 |
| 20260505173554 | -17 | 0.0 | 0.0 | 0.00 | 0.00 | 0.00 | 1007.7 | ||
| 20260505173055 | -17 | 0.0 | 0.0 | 0.00 | 0.00 | 0.00 | 1007.9 | ||
| 20260505172553 | -17 | 0.0 | 0.0 | 0.00 | 0.00 | 0.00 | 1007.8 | ||
| 20260505172058 | -17 | 0.0 | 0.0 | 0.00 | 0.00 | 0.00 | 1007.9 | ||
| 20260505171552 | -17 | 0.0 | 0.0 | 0.00 | 0.00 | 0.00 | 1007.9 | ||
| 20260505171049 | -17 | 0.0 | 0.0 | 0.00 | 0.00 | 0.00 | 1007.9 | ||
| 20260505170548 | -17 | 0.0 | 0.0 | 0.00 | 0.00 | 0.00 | 1007.9 | ||
| 20260505170046 | -17 | 0.0 | 0.0 | 0.00 | 0.00 | 0.00 | 1008.0 | ||
| 20260505165545 | -17 | 0.0 | 0.0 | 0.00 | 0.00 | 0.00 | 1008.1 | ||
| 20260505165044 | -17 | 0.0 | 0.0 | 0.00 | 0.00 | 0.00 | 1008.1 | ||
| 20260505164543 | -17 | 0.0 | 0.0 | 0.00 | 0.00 | 0.00 | 1008.2 | ||
| 20260505164041 | -17 | 0.0 | 0.0 | 0.00 | 0.00 | 0.00 | 1008.2 | ||
| 20260505163540 | -17 | 0.0 | 0.0 | 0.00 | 0.00 | 0.00 | 1008.3 | ||
| 20260505163038 | -17 | 0.0 | 0.0 | 0.00 | 0.00 | 0.00 | 1008.2 | ||
| 20260505162538 | -17 | 0.0 | 0.0 | 0.00 | 0.00 | 0.00 | 1008.2 | ||
| 20260505162035 | -17 | 0.0 | 0.0 | 0.00 | 0.00 | 0.00 | 1008.2 | ||
| 20260505161534 | -17 | 0.0 | 0.0 | 0.00 | 0.00 | 0.00 | 1008.2 | ||
| 20260505161032 | -17 | 0.0 | 0.0 | 0.00 | 0.00 | 0.00 | 1008.3 | ||
| 20260505160531 | -17 | 0.0 | 0.0 | 0.00 | 0.00 | 0.00 | 1008.3 | ||
| 20260505153022 | -17 | 0.0 | 0.0 | 0.00 | 0.00 | 0.00 | 1008.3 | ||
| 20260505152519 | -17 | 0.0 | 0.0 | 0.00 | 0.00 | 0.00 | 1008.3 | ||
| 20260505152017 | -17 | 0.0 | 0.0 | 0.00 | 0.00 | 0.00 | 1008.3 | ||
| 20260505151516 | -17 | 0.0 | 0.0 | 0.00 | 0.00 | 0.00 | 1008.2 |